Location: São Paulo
(23.5507°S, 46.6334°W)
Time: 19:41:28
(UTC-03:00)

X-37B - Pass Details

Date: 09 August 2021
Orbit: 381 x 393 km, 45.0° (Epoch: 29 August)

Event Time Altitude Azimuth Distance (km) Brightness Sun altitude
Rises 18:35:13 0° 224° (SW) 2,305 5.0 -11.3°
Reaches altitude 10° 18:37:21 10° 218° (SW) 1,441 3.8 -11.8°
Maximum altitude 18:40:32 53° 140° (SE) 494 0.8 -12.5°
Enters shadow 18:42:35 19° 68° (ENE) 1,003 2.2 -13.0°
